STARLINK-1031, 44736

Orbit data source: Space-Track

STARLINK-1031, 44736 is a payload satellite owned by SpaceX/Seattle (US) in LEO that was launched on Mon, 11 Nov 2019 UTC via an FALCON 9 launch vehicle from the Air Force Eastern Test Range (AFETR). Payloads include a variety of satellites, spacecraft, and rockets equipped with specific instruments for various scientific and technological missions. These include communications satellites like Starlink; space stations such as the ISS; scientific satellites like the Hubble; Earth observation satellites from companies like Planet Labs, Umbra, and HawkEye 360; GPS; miniature CubeSats for education and research; and military/defense satellites.

Loading next visibility...
STARLINK-1031 details
Identifier
44736, 2019-074Z
Orbit
LEO
Last TLE update12 hours ago
Origin
Flag of USSpaceX/Seattle (US)
ManufacturerSpaceX/Seattle
MissionOperational Commercial Communications
Bus & MotorSTARLINK, Unknown motor
Mass260 kg wet, ~248 kg dry
Launch date (UTC)
2019-11-11 (5 years ago)
Launch vehicle
FALCON 9
Launch site
Air Force Eastern Test Range (AFETR)
Object type
Payload
Rocket body
Debris
Shape & HBRBox + 1 Pan, 8.86 m
Radar Cross Section13.562 m², Large (>1 m²)

Expand to show TLE details & history

TLE from 12 hours ago
0 STARLINK-1031
1 44736U 19074Z   24361.27537683  .00019579  00000-0  13280-2 0  9999
2 44736  53.0561  14.7349 0001617  86.9035 273.2139 15.06446488282397
Epoch: 2024-12-26T06:36Z
Definitive object data (Epoch: 2024-12-26T06:36:32.558Z)
Latitude-0°
Longitude-179.65787°
Altitude547.886 km
Speed7.589 km/s
True Right ascension00h 58m 56s
True Declination0° 00' 00"
Sunlit
Object was in daylight at TLE epoch
Visualization TLE readout
Latitude32.08319°
Longitude-29.81757°
Altitude548.329 km
Speed7.592 km/s
Apparent Right ascension08h 38m 18s
Apparent Declination-2° 48' 52"
Sunlit
Object is in full shadow
Visualization observer readout
Local Sidereal Time17:44:29
Azimuth301.902° NW
Elevation-35.989°
Doppler factor1
Orbital elements
Apogee altitude548.459 km
Perigee altitude546.22 km
Semi-major axis6,925.477 km
Eccentricity0.0001617
Inclination53.0561°
RAAN14.7349°
Arg. of periapsis86.9035°
True anomaly273.1954°
Mean anomaly273.2139°
Eccentric anomaly273.20465°
Mean motion3.7659 °/min
BSTAR0.001328
Orbital period95.59 mins
Loading maneuver chart data...

STARLINK-1031 Visibility forecast

Observer location: undefined°, undefined

Span
Click to sort rows by Start time (UTC) header in descending order
Start Az.
Max El. time (UTC)
Max El. Az.
Max El.
End time (UTC)
End Az.
7 mins2024-12-27 03:28:00.605Z213.675° SW2024-12-27 03:32:00.605Z118.242° SE39.636°2024-12-27 03:35:00.605Z59.831° ENE
4 mins2024-12-27 05:10:00.605Z299.253° NW2024-12-27 05:11:00.605Z321.147° NNW23.692°2024-12-27 05:14:00.605Z23.324° NE
6 mins2024-12-27 10:11:00.605Z324.816° NNW2024-12-27 10:13:00.605Z19.847° NNE39.922°2024-12-27 10:17:00.605Z115.48° SE
4 mins2024-12-27 11:51:00.605Z258.928° W2024-12-27 11:52:00.605Z240.529° WSW18.261°2024-12-27 11:55:00.605Z189.352° SSW
|